Regional Weather Roundup
Issued by NWS

Home | Current Version | Previous Version | Text Only | Print | Product List | Glossary Off
Versions: 1 2 3 4 5 6 7 8 9 10 11 12 13 14 15 16 17 18 19 20 21 22 23 24 25 26 27 28 29 30 31 32 33 34 35 36 37 38 39 40 41 42 43 44 45 46 47 48 49 50

716
ASUS43 KDMX 291403
RWRIA

WEATHER ROUNDUP FOR IOWA
NATIONAL WEATHER SERVICE DES MOINES IA
900 AM CDT THU SEP 29 2016

NOTE: "FAIR" INDICATES FEW OR NO CLOUDS BELOW 12,000 FEET WITH NO
SIGNIFICANT WEATHER AND/OR OBSTRUCTIONS TO VISIBILITY.

* - THESE STATIONS ARE NOT NWS STATIONS...THUS NOT UNDER NWS
QUALITY CONTROL.  THEY ALSO DO NOT REPORT WEATHER SUCH
AS PRECIPITATION OR FOG.

IAZ001>003-012>014-020>022-031>034-043>046-291500-
   NORTHWEST IOWA

CITY           SKY/WX    TMP DP  RH WIND       PRES   REMARKS
CARROLL *      PTSUNNY   50  50 100 N6        30.42S
CHEROKEE *     SUNNY     47  47 100 NE6       30.45R
DENISON *      SUNNY     48  48 100 N5        30.43R FOG
ORANGE CITY *  SUNNY     48  46  93 CALM      30.46R
SHELDON *      SUNNY     48  48 100 CALM      30.45R
SIOUX CITY     SUNNY     49  47  93 W3        30.46R
SPENCER        SUNNY     50  48  93 N6        30.45R
STORM LAKE *   SUNNY     50  48  93 N8        30.44S
$$

IAZ055>058-069>071-079>083-090>094-291500-
   SOUTHWEST IOWA

CITY           SKY/WX    TMP DP  RH WIND       PRES   REMARKS
ATLANTIC *     SUNNY     52  50  93 N7        30.42R
AUDUBON *      CLOUDY    50  46  87 N5        30.43R FOG
CLARINDA *       N/A     52  52 100 MISG      30.42S FOG
COUNCIL BLFS * SUNNY     50  48  93 N8        30.43R
CRESTON *      SUNNY     52  50  93 N9        30.40R
HARLAN  *      SUNNY     50  50 100 N6        30.47R
LAMONI         MOSUNNY   52  50  93 N13       30.36S
RED OAK *      SUNNY     52  50  93 NE6       30.42R
SHENANDOAH *   SUNNY     52  50  93 N3        30.43R
$$

IAZ047>049-059>061-072>074-084-291500-
   CENTRAL IOWA

CITY           SKY/WX    TMP DP  RH WIND       PRES   REMARKS
AMES           SUNNY     53  52  96 N9        30.40R
ANKENY *         N/A    N/A N/A N/A MISG        N/A
BOONE *        SUNNY     52  52 100 N9        30.39S
CHARITON *       N/A     54  52  94 N8        30.36R
DES MOINES     MOSUNNY   56  51  84 N10       30.38R
GRINNELL*      MOSUNNY   54  51  91 NW6       30.36S
KNOXVILLE *    SUNNY     55  50  82 N9        30.35R
MARSHALLTOWN   SUNNY     54  52  93 N13       30.37R
NEWTON *       SUNNY     54  52  94 N10       30.36S
PELLA *        SUNNY     54  52  91 N7G16     30.36S
PERRY *          N/A     52  51  97 N7        30.41R
$$

IAZ004>006-015-016-023>025-035-036-291500-
   NORTH CENTRAL IOWA

CITY           SKY/WX    TMP DP  RH WIND       PRES   REMARKS
ALGONA *       FOG       48  48 100 NE8       30.44R VSB<1/4
CLARION *      FOG       50  50 100 NE9       30.42S VSB 1/2
ESTHERVILLE    PTSUNNY   49  49 100 N6        30.45R
FORT DODGE *   CLOUDY    46  45  93 NE6       30.43S VSB 1/4
MASON CITY     CLOUDY    53  51  93 N9        30.44R
FOREST CITY *  CLOUDY    52  52 100 N7        30.43S
WEBSTER CITY * FOG       50  50 100 NE7       30.40R VSB<1/4
IOWA FALLS *   CLOUDY    53  51  92 N9        30.41R
$$

IAZ007>011-017>019-026>030-037>042-050>054-066-291500-
   NORTHEAST IOWA

CITY           SKY/WX    TMP DP  RH WIND       PRES   REMARKS
CEDAR RAPIDS   SUNNY     56  52  86 N14       30.32R
CHARLES CITY * MOSUNNY   52  52 100 NE9       30.40R
CLINTON *      PTSUNNY   55  52  89 N16G22    30.27R
DECORAH *      SUNNY     54  52  94 N5        30.38R
DUBUQUE        SUNNY     54  50  86 N14       30.31S
MONTICELLO *   SUNNY     57  52  82 VRB7G15   30.31S
OELWEIN *      SUNNY     54  52  94 N10       30.37R
WATERLOO       SUNNY     55  50  83 N9        30.36S
$$

IAZ064-065-067-068-078-291500-
   EAST CENTRAL IOWA

CITY           SKY/WX    TMP DP  RH WIND       PRES   REMARKS
DAVENPORT      PTSUNNY   54  51  90 N16G26    30.27S
IOWA CITY      SUNNY     57  50  77 N13       30.32R
MUSCATINE *    SUNNY     57  50  77 N16       30.28S
QUAD CITIES    CLOUDY    56  50  80 N8        30.26R
$$

IAZ062-063-075>077-085>089-095>099-291500-
   SOUTHEAST IOWA

CITY           SKY/WX    TMP DP  RH WIND       PRES   REMARKS
BURLINGTON     PTSUNNY   53  52  96 N14       30.26R
FAIRFIELD *    SUNNY     55  50  82 N12       30.31R
FORT MADISON * MOSUNNY   54  52  94 N9G20     30.27R
KEOKUK *       MOSUNNY   55  50  82 N9G20     30.26R
OSKALOOSA *      N/A     55  51  89 N12       30.33R
OTTUMWA        SUNNY     56  51  84 N14       30.32R
WASHINGTON *     N/A    N/A N/A N/A MISG        N/A
$$

ABBREVIATIONS USED IN REMARKS
   TC - TEMPERATURES IN CELSIUS
  WCI - WIND CHILL INDEX
   HX - HEAT INDEX
  VSB - VISIBILITY
$$





USA.gov is the U.S. government's official web portal to all federal, state and local government web resources and services.